User: anonymous   Login
Location: Caltech
(34.1382°N, 118.1253°W)
Time: 16:12:27
(UTC-08:00)
Language:

deb Explorer IX - Orbit

View from above orbital plane
View from above orbital plane
View from above satellite
View from above satellite

Ground track
Ground track

The orbit data is extracted from the following two-line orbital elements,

1 00085U 61004C   14330.95928344  .00020094  00000-0  51545-2 0   773
2 00085 038.7680 232.4221 0437138 017.7716 343.7797 14.05286644643135
Epoch (UTC): 26 November 2014 23:01:22
Eccentricity: 0.0437138
inclination: 38.7680°
perigee height: 558 km
apogee height: 1192 km
right ascension of ascending node: 232.4221°
argument of perigee: 17.7716°
revolutions per day: 14.05286644
mean anomaly at epoch: 343.7797°
orbit number at epoch: 64313

The dashed part of the orbit path shows where the satellite is in the earth's shadow,  

DLR